This is the latest recevied weather packets stored in our database for station/object ED2YAA-3. If no packets are shown the sender has not sent any weather packets the latest 10 day(s).
| Time | Temp. | Humidity | Pressure | Rain* | Wind** | Luminosity | Snow |
|---|---|---|---|---|---|---|---|
| 1777462799 | 22.22° C | 67% | 986.7 hPa | 0 mm | - | - | - |
| 1777462517 | 22.22° C | 68% | 986.6 hPa | 0 mm | - | - | - |
| 1777459198 | 20.56° C | 75% | 986.9 hPa | 0 mm | - | - | - |
| 1777458916 | 20.56° C | 76% | 987 hPa | 0 mm | - | - | - |
| 1777455600 | 18.33° C | 81% | 987.6 hPa | 0 mm | - | - | - |
| 1777455318 | 18.33° C | 81% | 987.6 hPa | 0 mm | - | - | - |
| 1777452000 | 16.67° C | 85% | 987.6 hPa | 0 mm | - | - | - |
| 1777451717 | 16.67° C | 85% | 987.6 hPa | 0 mm | - | - | - |
| 1777448399 | 16.11° C | 85% | 987.9 hPa | 0 mm | - | - | - |
| 1777448117 | 16.11° C | 86% | 987.9 hPa | 0 mm | - | - | - |
| 1777446178 | 15.56° C | 86% | 987.7 hPa | 0 mm | - | - | - |
| 1777444517 | 15° C | 87% | 987.6 hPa | 0 mm | - | - | - |
| 1777442580 | 15° C | 87% | 987.5 hPa | 0 mm | - | - | - |
| 1777440917 | 15° C | 86% | 987.5 hPa | 0 mm | - | - | - |
| 1777438978 | 15° C | 86% | 987.4 hPa | 0 mm | - | - | - |
| 1777437317 | 15° C | 86% | 987.6 hPa | 0 mm | - | - | - |
| 1777435381 | 15° C | 86% | 987.6 hPa | 0 mm | - | - | - |
| 1777433716 | 15° C | 86% | 987.9 hPa | 0 mm | - | - | - |
| 1777431779 | 15° C | 85% | 988.4 hPa | 0 mm | - | - | - |
| 1777430115 | 15° C | 85% | 988.6 hPa | 0 mm | - | - | - |
| 1777428178 | 15° C | 84% | 988.9 hPa | 0 mm | - | - | - |
| 1777426517 | 15° C | 84% | 989 hPa | 0 mm | - | - | - |
| 1777424578 | 15.56° C | 84% | 989.1 hPa | 0 mm | - | - | - |
| 1777422917 | 15.56° C | 83% | 989.5 hPa | 0 mm | - | - | - |
| 1777420978 | 15.56° C | 82% | 989.9 hPa | 0 mm | - | - | - |
* Rain latest hour (hover to see other rain measurements)
** Current wind speed in m/s (hover to see current wind gust speed)